This is the latest recevied weather packets stored in our database for station/object N9XRG. If no packets are shown the sender has not sent any weather packets the latest 10 day(s).
| Time | Temp. | Humidity | Pressure | Rain* | Wind** | Luminosity | Snow |
|---|---|---|---|---|---|---|---|
| 1777923108 | 25.56° C | 44% | 1002.7 hPa | 0 mm | - | 385 W/m² | - |
| 1777922806 | 25° C | 44% | 1002.6 hPa | 0 mm | - | 440 W/m² | - |
| 1777922504 | 25.56° C | 43% | 1002.8 hPa | 0 mm | - | 244 W/m² | - |
| 1777922202 | 26.11° C | 45% | 1002.6 hPa | 0 mm | - | 767 W/m² | - |
| 1777921898 | 25.56° C | 44% | 1002.6 hPa | 0 mm | - | 995 W/m² | - |
| 1777921594 | 25.56° C | 45% | 1002.8 hPa | 0 mm | - | 216 W/m² | - |
| 1777921291 | 25.56° C | 44% | 1002.6 hPa | 0 mm | - | 983 W/m² | - |
| 1777920987 | 25.56° C | 47% | 1002.6 hPa | 0 mm | - | 990 W/m² | - |
| 1777920684 | 25.56° C | 47% | 1002.7 hPa | 0 mm | - | 996 W/m² | - |
| 1777920380 | 25.56° C | 47% | 1002.9 hPa | 0 mm | - | 944 W/m² | - |
| 1777920075 | 24.44° C | 46% | 1002.8 hPa | 0 mm | - | 971 W/m² | - |
| 1777919773 | 24.44° C | 47% | 1002.9 hPa | 0 mm | - | 339 W/m² | - |
| 1777919470 | 25° C | 47% | 1003.1 hPa | 0 mm | - | 975 W/m² | - |
| 1777919168 | 25° C | 45% | 1002.9 hPa | 0 mm | - | 620 W/m² | - |
| 1777918865 | 25° C | 45% | 1003.1 hPa | 0 mm | - | 927 W/m² | - |
| 1777918562 | 25.56° C | 46% | 1003.2 hPa | 0 mm | - | 949 W/m² | - |
| 1777918260 | 25° C | 47% | 1003.1 hPa | 0 mm | - | 937 W/m² | - |
| 1777917958 | 24.44° C | 49% | 1003.2 hPa | 0 mm | - | 926 W/m² | - |
| 1777917657 | 25° C | 47% | 1003.3 hPa | 0 mm | - | 934 W/m² | - |
| 1777917354 | 24.44° C | 48% | 1003 hPa | 0 mm | - | 925 W/m² | - |
| 1777917050 | 24.44° C | 49% | 1003.3 hPa | 0 mm | - | 928 W/m² | - |
| 1777916749 | 24.44° C | 49% | 1003.2 hPa | 0 mm | - | 910 W/m² | - |
| 1777916445 | 25° C | 47% | 1003.2 hPa | 0 mm | - | 927 W/m² | - |
| 1777916142 | 24.44° C | 49% | 1003.6 hPa | 0 mm | - | 943 W/m² | - |
| 1777915840 | 24.44° C | 48% | 1003.5 hPa | 0 mm | - | 948 W/m² | - |
* Rain latest hour (hover to see other rain measurements)
** Current wind speed in m/s (hover to see current wind gust speed)